Wind_Speed
69 71 73 75 76 77 78 79 80 81 82 83 84 86 88 89 90 91 92 93 94 96 98 100 103 104 106 107 108 109 110 111 112 113 113 113 113 113 113 114 114 115 116 116 117 118 119 120 122 123 125 125 126 125 124 122 121 119 118 115 114 112 109 106 102 96 93 92 91 90 90 90 90 91 91 90 91 91 90 88 87 85 84 84 84
73 75 76 78 79 80 81 82 83 84 85 86 87 89 90 92 92 92 93 95 96 98 101 103 105 106 107 108 109 110 111 113 113 114 114 113 113 113 114 114 115 116 116 117 117 118 119 121 122 123 124 124 124 122 120 118 117 115 114 112 110 109 107 104 101 97 92 90 90 89 88 87 87 88 88 88 88 89 88 88 87 85 84 83 83
76 78 79 80 81 82 83 84 85 86 88 89 91 92 93 93 93 93 95 97 99 101 103 105 106 108 109 109 110 111 112 113 114 114 114 113 113 114 115 115 116 116 117 118 118 119 120 121 122 123 123 123 121 119 116 114 113 112 110 109 107 106 105 103 100 96 92 88 88 88 87 86 85 85 85 85 85 86 86 86 86 85 83 83 82
79 80 82 83 84 85 86 87 88 89 91 92 93 93 94 93 93 94 96 98 100 102 105 106 108 109 109 110 111 111 112 113 114 114 114 113 114 114 115 116 117 117 118 118 118 119 121 122 123 123 122 120 118 115 113 111 110 109 107 106 105 103 103 101 99 95 91 87 86 86 85 85 84 83 82 82 82 83 83 83 84 85 84 83 82
82 83 84 85 86 87 87 89 90 92 93 93 94 95 95 94 95 96 99 102 103 105 107 108 109 109 110 110 111 111 112 113 114 114 114 114 114 115 116 116 117 118 119 119 119 120 122 123 123 122 120 118 115 113 111 109 108 106 105 103 102 101 100 99 97 94 91 87 84 83 83 83 82 82 80 79 79 80 81 81 82 83 83 82 82
84 85 86 86 86 87 89 91 92 94 94 95 96 97 97 97 98 100 103 105 106 107 108 109 109 109 110 110 111 111 112 113 113 114 114 114 115 115 116 117 118 119 120 120 120 121 122 123 122 121 118 115 113 111 110 108 106 104 103 101 99 98 97 96 94 92 89 87 83 81 81 81 80 80 78 77 77 78 78 79 80 81 80 80 81
85 86 86 86 87 89 91 93 94 96 96 97 98 98 99 99 101 103 105 107 108 108 109 109 109 109 110 110 111 112 112 112 113 114 114 115 115 116 117 118 120 121 121 121 122 122 123 123 122 119 116 113 112 110 109 106 104 102 101 99 97 96 94 93 92 90 88 85 83 81 79 79 78 77 76 76 76 75 75 75 78 80 79 77 79
86 86 87 88 90 92 94 95 96 97 98 98 99 100 101 102 103 105 106 108 108 108 109 109 109 110 111 111 112 112 112 112 113 114 114 115 115 116 118 120 121 122 122 122 123 123 123 123 120 117 115 113 112 110 108 105 103 101 99 97 95 93 91 90 89 88 86 84 82 80 78 77 76 75 74 74 74 74 72 71 73 77 78 77 78
88 88 89 91 93 95 96 96 97 97 98 99 101 102 103 103 104 105 107 108 108 108 108 109 110 111 112 112 113 112 113 113 114 114 115 115 116 118 120 122 123 123 123 124 124 124 124 122 119 116 114 113 112 109 107 104 101 99 97 95 93 90 89 87 86 85 83 82 81 79 77 76 76 75 73 72 71 70 70 70 70 71 73 75 78
90 91 92 93 95 95 96 96 96 97 98 100 101 102 103 103 104 105 106 107 107 108 108 109 111 112 113 113 113 113 114 115 115 115 115 116 118 120 122 124 124 124 125 126 126 125 124 121 118 116 115 113 111 108 105 102 99 97 95 92 90 88 86 84 83 82 80 79 79 77 76 75 75 74 73 72 70 68 67 67 67 67 68 70 75
91 92 93 94 95 95 95 96 97 98 99 100 101 102 103 104 104 105 106 107 107 108 109 111 113 114 114 114 115 116 117 117 116 117 117 119 121 123 125 126 126 126 127 127 127 126 123 120 118 117 115 113 110 107 104 101 98 96 93 90 88 85 83 81 80 78 77 76 76 76 74 73 73 74 73 70 69 67 65 64 64 64 65 66 70
92 93 94 95 95 95 96 97 98 99 100 101 102 103 104 104 105 105 106 107 108 109 111 113 114 115 115 116 117 119 119 119 118 119 120 122 124 125 127 128 128 128 128 128 128 126 123 120 119 117 115 112 109 106 103 100 97 95 92 89 86 83 81 79 76 74 73 73 72 73 73 72 71 73 73 70 67 66 64 63 62 61 63 65 66
94 95 95 95 95 96 98 98 99 100 101 103 104 104 105 105 106 106 107 108 110 112 114 115 116 116 118 119 121 121 121 121 121 122 124 126 127 127 129 130 131 131 131 129 128 125 123 121 119 117 114 111 108 105 102 99 96 93 90 87 84 82 79 77 74 71 70 69 68 69 70 70 70 70 71 69 66 64 63 62 62 62 62 64 65
95 96 96 96 97 98 99 100 101 102 103 104 105 106 107 107 107 108 109 111 113 115 117 117 118 119 121 122 123 124 124 124 125 126 128 129 129 130 131 133 133 133 132 130 128 125 123 121 119 117 113 110 107 103 100 97 94 91 88 84 82 80 78 75 72 70 68 66 64 65 67 68 68 68 69 67 65 63 63 63 63 63 63 64 65
96 97 97 98 99 100 101 102 104 105 106 106 107 108 109 109 110 111 113 115 117 118 119 120 121 123 124 125 126 127 128 129 129 130 131 132 132 133 134 135 135 135 133 130 127 125 123 121 118 116 112 109 106 102 98 95 92 89 85 82 80 78 76 74 71 69 67 65 63 62 63 65 65 65 65 65 63 62 62 63 64 64 65 66 66
98 99 99 100 101 102 103 105 106 107 108 109 109 110 111 112 113 115 117 119 120 122 123 124 125 127 128 129 130 132 133 134 134 134 135 135 136 137 138 138 137 136 132 129 127 125 123 121 117 114 111 108 104 100 96 93 90 86 83 80 78 76 75 73 71 69 67 64 63 63 62 62 62 62 62 61 61 60 61 63 65 65 65 67 68
100 101 101 102 103 105 106 108 109 110 110 111 112 113 114 116 118 120 121 123 124 125 127 128 129 131 132 133 135 137 138 138 138 138 138 139 139 140 141 139 137 134 131 128 127 125 123 120 116 112 109 106 103 99 95 91 87 84 81 78 76 74 73 71 70 69 67 64 63 63 62 60 59 59 60 60 59 58 59 61 64 65 65 65 67
103 103 104 105 106 108 109 111 112 112 113 113 115 116 118 120 122 124 125 126 128 129 130 132 133 135 136 138 140 141 142 142 142 142 142 142 143 143 142 139 135 132 130 128 127 125 122 118 114 111 108 104 101 97 93 89 85 83 80 77 74 72 71 69 68 67 66 65 64 63 62 60 58 58 58 58 58 58 57 59 61 63 64 64 65
104 105 107 108 110 111 112 113 114 115 115 117 118 120 122 125 126 127 129 130 131 132 134 136 137 138 140 142 143 144 146 146 146 146 145 145 145 143 140 136 133 130 129 128 126 124 120 117 113 110 106 103 100 96 92 88 84 81 79 76 73 72 70 68 67 66 65 64 64 64 63 61 59 58 58 58 58 57 57 58 59 60 61 62 63
107 109 110 112 113 114 115 116 116 117 119 120 122 124 126 128 129 131 132 133 134 136 137 139 140 142 144 145 146 148 149 150 150 148 147 147 145 142 137 134 131 129 128 127 125 122 118 116 112 108 105 102 99 95 91 87 83 80 78 75 73 71 69 67 66 65 64 63 64 64 64 62 61 60 59 59 58 58 58 57 57 58 58 59 60
110 112 113 115 116 117 118 118 119 121 122 124 126 128 129 131 132 134 135 136 138 139 140 142 143 145 147 148 150 151 152 152 151 149 148 147 143 138 134 131 129 128 128 126 123 120 117 114 111 107 105 102 98 94 89 85 82 79 76 74 72 70 68 66 65 64 63 63 63 64 63 63 62 61 60 60 60 59 59 58 58 57 57 58 59
114 115 117 118 119 119 120 121 123 124 126 127 129 130 132 134 135 136 138 139 140 142 143 145 147 148 149 151 152 153 153 153 151 149 148 145 140 136 132 129 128 128 126 124 121 118 115 112 109 106 104 101 97 92 87 84 80 77 75 73 71 70 67 65 64 63 63 62 62 63 63 63 62 62 60 60 60 60 60 60 58 58 58 58 58
118 119 120 120 121 122 123 124 126 127 129 130 132 133 135 136 138 139 141 142 143 145 147 148 149 151 152 153 153 154 153 152 150 148 145 142 137 133 130 129 128 126 124 121 119 116 113 110 107 105 103 99 95 89 85 82 79 76 74 72 71 69 68 66 64 63 63 62 62 63 63 62 62 61 61 60 60 60 61 60 59 58 58 58 57
121 121 122 123 124 125 126 128 129 130 132 133 134 136 137 139 140 142 143 145 146 148 150 151 152 153 153 154 154 154 152 150 148 145 142 138 134 132 130 129 127 125 122 119 117 114 111 108 106 104 101 97 92 87 83 81 78 75 72 71 70 69 68 67 65 64 63 63 62 63 63 63 62 61 61 61 60 61 62 62 61 59 59 59 57
123 124 125 126 127 128 129 131 132 133 135 136 137 139 140 142 143 144 146 148 149 151 152 153 154 154 154 154 153 152 150 147 144 141 138 135 132 131 129 128 125 122 120 117 115 112 110 106 104 102 99 95 90 85 82 80 77 74 72 71 70 69 68 67 66 65 64 63 63 63 64 64 63 62 61 61 60 61 63 63 62 60 60 60 59
126 127 128 129 130 131 132 133 135 136 138 139 141 142 143 144 146 147 149 150 152 153 154 154 154 154 154 153 151 149 146 142 139 137 135 133 131 130 128 126 123 120 118 115 113 110 108 105 103 100 97 93 88 83 81 79 77 74 72 71 70 69 68 68 67 66 65 64 63 64 64 64 64 62 62 61 60 60 62 63 63 61 60 60 60
129 130 131 132 133 134 135 137 138 139 141 142 144 145 146 147 148 150 151 153 154 154 155 155 154 154 152 150 147 144 141 137 135 134 133 131 130 128 125 123 121 118 116 113 111 108 106 103 101 99 95 91 86 82 81 79 77 74 73 71 70 69 68 68 67 66 65 64 63 64 64 64 64 63 63 62 61 60 61 62 63 62 61 60 60
132 133 134 135 136 138 139 140 142 143 144 146 147 148 149 150 151 152 153 154 155 155 155 154 153 151 149 146 143 139 136 134 133 132 131 130 128 125 123 121 118 116 114 111 108 105 103 101 99 96 93 89 85 81 80 78 76 74 73 71 70 69 68 67 67 66 65 64 64 64 64 64 63 63 63 63 62 61 61 61 62 62 61 60 60
135 136 137 138 139 141 142 144 145 146 148 149 150 151 152 153 154 154 155 156 156 155 154 152 150 148 145 141 138 136 133 132 131 130 128 126 124 121 119 118 116 113 111 108 105 102 100 98 97 95 91 87 83 81 79 77 76 74 73 71 70 69 67 66 66 65 64 64 63 63 64 64 63 63 63 63 63 61 61 61 62 62 61 60 60
139 139 140 142 143 144 146 147 148 149 151 152 153 154 154 155 156 156 156 156 154 153 151 149 146 143 140 137 135 133 131 130 129 127 124 122 119 118 116 114 112 110 107 104 101 98 96 96 94 93 90 86 82 80 79 77 76 74 73 71 70 68 67 66 65 65 64 64 64 63 63 63 63 62 62 63 63 62 61 61 62 62 61 61 60
142 143 144 145 146 147 149 150 151 152 153 154 155 156 156 157 156 156 155 153 152 149 147 144 141 138 136 134 133 131 130 128 125 123 120 118 116 114 112 110 108 105 103 100 97 94 93 92 92 90 88 84 81 80 78 77 76 75 74 72 71 69 68 67 66 65 65 64 64 63 63 63 63 62 62 62 62 62 61 61 61 61 62 61 60
146 146 147 148 149 150 151 152 153 154 155 156 157 157 157 156 155 153 151 150 147 144 142 139 137 135 133 132 131 130 128 125 122 119 117 115 113 110 108 106 103 101 99 96 93 91 90 89 88 88 86 83 81 80 79 77 76 75 74 73 72 70 69 68 67 66 65 64 64 63 63 62 62 62 62 61 61 61 61 61 61 61 61 61 60
149 149 150 151 152 153 154 155 155 156 157 157 157 156 155 154 152 150 148 145 142 139 137 136 134 133 132 131 129 127 125 122 119 117 115 112 110 107 104 101 98 96 95 93 90 88 87 86 85 85 83 81 79 78 78 77 76 75 74 73 72 71 70 69 67 66 65 64 64 63 63 62 62 62 62 61 60 60 60 61 61 61 60 60 59
152 152 153 154 154 155 156 157 157 157 157 157 156 154 152 150 148 146 143 140 138 136 135 134 133 132 131 129 126 124 121 119 117 115 112 110 107 104 101 97 95 94 92 90 88 86 84 83 82 82 81 79 77 76 76 76 76 75 74 72 72 71 70 69 67 66 65 64 64 63 63 62 61 61 61 61 59 59 59 60 60 60 60 60 59
154 154 155 156 156 157 157 157 157 156 155 154 152 151 148 146 143 140 138 136 135 134 134 133 132 130 128 126 123 121 118 115 113 111 108 106 103 100 97 94 92 91 90 88 87 85 83 82 81 80 79 78 76 75 75 75 74 74 73 72 71 71 70 68 67 66 65 64 64 63 63 62 60 60 60 60 59 59 59 59 59 59 59 59 58
155 156 156 156 157 157 156 156 155 154 152 150 148 146 143 140 138 137 135 134 133 133 132 131 129 127 124 122 120 117 115 112 109 107 104 101 99 96 93 91 89 88 87 86 85 84 82 81 80 79 78 77 76 75 75 74 73 73 72 71 70 70 69 68 66 65 64 64 64 64 63 62 60 59 59 59 58 58 59 59 58 58 58 57 57
155 155 155 155 155 154 153 152 151 149 147 145 143 140 138 137 136 135 134 133 132 131 129 127 124 122 120 118 116 113 110 108 105 102 100 98 96 93 91 89 87 86 85 84 83 82 81 80 78 77 77 76 76 75 74 73 73 72 71 71 70 69 68 67 66 65 64 63 63 64 63 61 59 59 58 58 57 58 58 58 58 58 57 56 55
154 153 153 152 151 149 148 146 144 143 141 139 138 137 136 135 134 133 132 131 129 127 124 122 120 118 116 113 111 108 105 102 100 98 96 95 93 92 90 88 86 84 83 82 81 80 79 79 78 77 76 76 75 75 74 73 72 71 70 70 69 69 68 67 66 64 64 63 63 63 61 60 58 58 57 57 57 57 57 57 57 57 56 55 54
150 149 147 146 144 143 141 140 139 138 137 136 135 134 133 133 132 131 129 127 124 122 120 118 115 113 110 108 105 103 100 98 96 95 94 93 92 91 89 87 85 83 81 80 79 78 78 77 77 76 75 74 74 73 73 71 70 69 68 68 67 67 67 66 64 63 63 63 63 62 60 58 57 57 56 56 56 56 57 56 56 56 55 54 53
144 143 141 140 139 137 136 136 135 134 134 133 133 132 131 130 128 126 124 122 120 118 115 113 110 108 105 103 100 98 96 94 93 93 92 91 90 89 88 86 83 82 80 78 77 77 76 76 75 75 74 73 72 72 71 70 68 67 66 65 66 66 65 64 62 62 61 62 62 60 58 57 56 56 55 55 55 55 55 55 55 54 54 54 53
138 137 137 136 135 134 134 133 133 132 132 131 130 129 127 125 123 121 119 117 115 113 110 108 105 102 100 98 96 95 94 92 92 91 90 89 89 87 86 84 82 80 79 77 76 76 75 74 73 73 73 72 71 70 69 68 67 65 64 64 64 64 63 62 60 60 61 61 60 58 56 56 55 54 54 54 54 54 54 54 54 53 52 52 52
135 135 134 133 133 132 132 131 131 130 129 127 126 124 122 120 119 117 114 112 110 107 105 103 100 98 97 95 94 93 92 91 90 89 88 87 86 85 84 83 82 80 78 77 76 74 73 72 71 71 71 71 69 68 67 66 65 63 62 62 63 62 61 60 59 59 60 59 57 56 55 55 54 53 53 53 53 53 53 53 53 53 52 51 51
133 133 132 132 131 131 130 129 128 126 124 123 121 119 117 116 114 112 109 107 105 102 100 99 97 96 95 93 92 92 91 90 89 87 86 84 83 82 81 81 81 80 78 76 74 73 71 70 69 70 70 69 67 66 65 64 63 62 61 61 61 61 60 59 58 58 58 57 56 54 54 53 52 52 52 53 53 52 52 52 52 51 51 50 50
131 131 130 129 129 127 126 124 123 121 119 118 116 114 112 111 109 107 104 102 100 98 97 96 95 94 93 92 91 90 90 88 87 85 84 82 80 79 78 77 78 78 77 76 74 72 70 69 68 68 68 67 66 65 64 63 62 61 60 60 60 59 58 58 58 57 56 55 54 53 52 51 51 51 52 52 52 51 51 51 51 50 50 49 49
128 127 126 125 123 122 120 119 118 116 115 113 112 110 108 106 104 102 100 98 97 96 95 94 93 92 91 91 90 89 88 86 85 83 82 80 78 77 76 75 74 74 74 74 73 71 69 68 68 67 67 66 65 64 63 62 61 60 60 59 58 58 57 57 56 55 54 54 53 52 51 50 50 51 51 51 51 50 50 50 49 49 49 48 48
124 122 121 119 118 117 116 114 113 112 110 109 107 105 103 101 99 98 97 96 95 94 93 92 91 90 89 88 87 86 85 84 82 81 79 77 76 75 74 73 72 72 71 71 70 69 68 68 67 66 66 65 64 63 62 61 60 59 59 58 58 57 56 55 55 54 54 53 52 51 50 49 49 50 50 50 49 49 49 48 48 48 48 47 46
119 118 116 115 114 113 111 110 109 107 105 104 102 100 99 97 96 95 94 93 93 92 91 90 89 88 87 86 84 83 82 80 79 77 76 75 75 74 73 72 71 71 70 69 69 68 67 67 66 65 64 64 63 62 61 60 59 58 57 57 57 56 55 54 53 53 53 52 51 49 49 48 49 49 49 49 48 48 48 47 47 47 47 46 46
116 115 113 112 110 108 107 105 103 102 100 99 97 96 95 94 93 93 92 91 90 89 89 87 86 85 84 82 81 80 78 77 76 75 74 74 73 72 72 71 70 70 69 68 67 66 65 65 64 63 62 62 61 60 59 58 57 56 56 56 56 55 54 53 52 52 52 51 50 49 48 48 48 48 48 48 47 47 46 46 46 45 46 45 45
113 112 110 108 106 104 102 100 98 97 96 95 94 93 92 91 91 90 89 89 88 87 85 84 83 82 80 79 78 77 76 75 74 73 73 72 72 71 70 69 69 68 67 66 65 64 63 62 62 61 60 60 59 59 58 57 56 55 55 55 54 53 52 51 51 51 50 49 49 48 47 47 47 47 47 47 46 46 45 44 44 44 44 45 44
110 108 106 104 102 100 98 96 95 94 93 92 91 90 90 89 89 88 87 86 85 84 82 81 80 79 77 76 76 75 74 73 72 72 71 71 70 70 69 68 67 66 65 64 63 63 62 61 60 59 58 58 57 57 57 56 55 54 53 53 53 52 51 50 50 50 49 48 47 47 47 46 46 46 46 46 45 45 44 43 42 43 43 44 44
105 103 102 100 98 97 95 94 93 92 91 90 89 88 88 87 86 85 84 83 82 81 80 78 77 76 75 75 74 74 73 72 71 70 70 69 69 68 67 67 66 65 64 63 62 61 60 59 58 57 56 56 55 55 55 54 54 53 52 52 51 51 50 49 48 48 48 47 46 46 46 45 45 45 45 45 45 44 42 42 41 41 42 43 43
Wind_Direction
287 288 288 289 290 291 291 291 291 291 291 292 292 292 293 294 295 296 297 298 298 297 296 295 295 295 295 296 296 296 296 296 296 297 297 297 298 299 299 299 300 300 300 300 301 302 302 303 304 304 304 304 303 303 302 302 301 300 300 299 299 298 297 296 295 293 291 290 288 286 284 283 281 280 279 278 278 277 277 276 274 272 270 268 266
288 288 289 290 291 291 292 292 291 292 292 292 292 293 293 294 296 297 297 297 296 295 295 294 295 295 295 296 296 296 296 296 297 297 298 299 299 300 300 300 300 301 301 302 302 303 304 305 305 305 305 305 304 303 303 302 301 301 300 299 299 298 297 296 295 294 292 290 289 287 285 283 281 279 278 277 276 276 276 276 275 273 272 270 268
288 289 290 290 291 292 292 292 292 292 292 293 293 294 295 295 296 296 297 296 295 294 294 294 294 295 295 295 296 296 296 297 297 298 299 300 300 301 301 301 301 302 302 303 303 304 305 306 306 306 306 305 304 304 303 302 302 301 300 299 299 298 296 296 295 294 292 291 289 287 286 284 281 279 278 276 276 275 275 275 274 273 272 270 268
288 289 290 291 292 292 293 293 292 292 293 293 294 294 295 295 295 295 296 295 295 294 294 294 294 294 295 295 296 296 297 297 298 299 300 301 301 302 302 302 302 303 303 304 305 306 306 307 307 306 306 305 304 304 303 302 302 301 300 299 298 298 297 296 295 294 293 291 289 287 285 284 282 280 278 277 276 274 273 273 272 272 271 270 269
289 290 291 292 293 293 293 292 292 292 293 294 294 294 294 294 294 294 295 295 294 294 294 294 294 295 295 296 297 297 298 298 299 300 301 302 302 302 303 303 304 305 305 306 306 307 307 307 307 307 306 305 305 304 303 302 302 301 300 299 299 298 297 296 295 294 292 291 289 287 285 283 281 280 278 277 276 274 273 272 270 270 270 270 269
290 291 292 293 292 292 291 291 292 292 293 294 294 294 293 293 293 294 294 294 294 294 294 294 295 296 296 297 298 298 299 300 301 302 302 303 303 304 304 305 306 306 307 307 308 308 308 308 308 307 306 306 305 304 303 303 302 301 301 300 299 298 297 295 294 293 292 290 288 286 284 283 281 280 278 277 275 273 273 272 271 270 269 268 268
291 291 292 292 291 291 291 291 292 293 293 293 293 293 293 293 293 293 293 294 294 294 295 295 296 297 298 299 299 300 300 301 302 303 303 304 304 305 306 307 308 308 308 309 309 309 309 309 308 308 307 307 306 305 304 303 303 302 301 300 299 298 296 295 294 293 291 290 289 287 284 282 281 279 278 277 275 273 272 271 271 271 270 268 267
290 290 291 291 290 290 291 292 293 293 293 293 293 294 294 294 293 293 293 294 294 295 296 297 298 299 300 300 300 301 301 302 303 303 304 305 306 307 308 309 309 309 309 310 310 310 310 309 309 309 308 307 307 306 305 304 303 303 302 301 299 298 296 295 293 292 291 290 288 287 285 283 281 279 278 276 275 274 272 270 269 269 270 270 268
289 289 289 290 290 291 292 293 294 294 294 294 294 294 294 294 294 293 294 294 295 296 297 298 300 300 301 301 301 302 303 303 304 305 305 306 308 309 309 310 310 310 311 311 311 311 311 310 310 309 309 308 307 306 305 305 304 303 302 301 299 297 296 294 292 291 290 289 287 286 285 283 281 280 278 276 275 273 272 271 269 267 268 269 270
288 288 289 290 291 292 293 294 294 295 295 295 295 295 295 294 294 294 295 296 297 298 299 301 301 302 302 302 303 304 304 305 305 306 307 308 309 310 311 311 311 311 312 312 312 312 311 311 311 310 310 309 308 307 306 305 304 303 302 300 299 297 295 293 291 290 289 287 286 285 284 283 281 280 278 277 276 274 272 271 269 268 266 266 267
287 288 289 290 291 293 294 294 295 296 296 295 295 295 295 295 295 296 297 298 299 300 302 303 303 303 303 304 305 306 306 307 307 308 309 310 311 312 312 312 312 312 313 313 313 312 312 312 311 311 310 309 308 307 307 306 305 304 302 301 299 297 295 293 291 289 288 287 285 285 283 282 281 280 279 277 277 276 274 272 270 268 267 265 264
287 288 289 291 292 294 295 295 296 296 296 295 295 295 296 296 297 298 299 300 301 302 303 304 304 304 305 306 307 307 308 308 309 310 311 312 312 313 313 313 313 313 313 313 313 313 313 312 312 311 310 309 308 308 307 306 305 304 302 301 299 297 294 292 290 289 287 285 284 283 282 281 280 280 279 278 277 276 275 274 272 269 267 266 264
288 289 291 292 294 295 295 296 296 296 296 296 296 297 298 298 299 300 301 302 303 304 305 305 305 306 307 308 308 309 309 310 311 312 312 313 313 314 314 314 314 314 314 313 313 313 313 313 312 311 310 310 309 308 307 306 305 304 303 301 299 297 295 292 291 288 286 284 283 282 281 280 279 278 279 279 278 277 276 275 273 271 268 267 265
290 291 293 294 295 295 296 296 297 297 297 297 298 299 299 300 301 302 303 304 305 305 306 306 307 308 309 309 310 310 311 311 312 313 313 313 314 314 315 315 314 314 314 314 314 313 313 313 312 311 311 310 309 308 307 306 305 304 303 302 300 298 296 294 292 289 287 284 282 280 279 278 278 277 277 278 278 277 276 275 274 272 271 268 267
292 293 294 295 296 296 297 297 298 298 298 299 300 300 301 302 302 304 305 305 306 307 307 308 309 309 310 310 311 312 312 313 313 313 314 314 315 315 315 315 315 314 314 314 314 313 313 312 312 311 310 309 308 308 307 306 305 304 303 302 301 299 297 295 293 291 288 286 283 281 278 277 277 276 276 276 277 276 276 275 274 273 272 271 270
293 294 295 296 297 297 298 298 298 299 300 300 301 302 302 303 304 305 306 306 307 308 308 309 310 310 311 312 313 313 313 314 314 314 314 315 315 315 315 315 315 314 314 314 314 313 313 312 312 311 310 309 308 307 307 306 306 305 304 303 301 300 298 296 295 292 290 288 285 283 280 278 277 277 276 275 275 274 274 273 273 273 272 272 272
295 296 297 297 298 298 298 299 299 300 301 301 302 303 304 305 305 306 307 307 308 308 309 310 311 312 312 313 314 314 314 314 314 314 315 315 315 315 315 315 314 314 313 314 314 313 313 312 311 311 310 309 308 307 306 306 306 305 304 303 302 300 298 297 295 293 291 289 286 284 281 280 279 277 276 275 274 273 273 273 273 273 272 271 271
296 297 298 298 298 299 299 300 300 301 302 303 303 304 305 306 306 307 307 307 308 309 310 311 312 312 313 314 314 314 314 314 314 315 315 315 315 315 314 314 313 313 313 313 313 313 312 312 311 310 309 309 308 307 307 307 307 305 304 303 302 300 298 297 295 294 292 290 288 285 283 282 280 278 276 275 274 274 272 272 272 273 273 272 271
296 297 298 298 298 299 300 300 301 302 303 304 305 305 305 306 306 307 307 307 308 309 310 311 312 313 313 314 314 314 314 314 314 314 314 314 314 314 313 313 313 313 313 313 313 312 312 311 310 310 309 308 307 307 307 307 307 305 304 303 302 300 298 297 296 294 293 292 290 288 286 285 283 280 279 277 276 275 274 273 272 272 272 272 272
296 297 297 298 298 299 300 301 302 303 304 304 305 305 305 306 306 306 307 308 309 310 311 311 312 313 313 314 314 314 314 314 314 314 314 313 313 313 313 313 313 313 313 312 312 312 311 311 310 309 309 308 307 307 307 307 306 305 303 302 301 299 298 297 296 294 293 292 291 289 288 287 286 284 283 281 280 278 277 275 274 273 272 272 271
296 297 297 298 299 300 301 302 302 303 304 304 304 304 305 305 305 306 307 308 309 310 311 312 312 312 313 313 313 313 313 313 313 313 313 312 312 312 312 312 312 312 312 312 312 311 310 310 310 309 308 307 307 306 307 306 305 304 303 301 300 299 298 297 296 294 293 292 291 289 289 288 287 286 285 284 283 282 280 278 277 275 274 273 272
296 297 297 298 299 300 301 302 302 303 303 303 303 304 304 305 306 307 308 308 309 310 311 311 311 312 312 312 312 312 312 312 312 312 312 311 311 311 312 312 312 312 311 311 311 310 310 309 309 308 307 306 306 306 306 305 304 303 302 301 299 298 297 296 295 294 293 292 290 289 289 288 288 287 286 286 285 284 282 281 279 278 276 275 274
296 297 297 298 299 300 301 301 302 302 302 303 303 303 304 305 306 307 308 308 309 310 310 310 311 311 311 311 311 311 311 312 312 311 311 311 311 311 312 312 311 311 311 311 310 309 309 309 308 307 306 305 305 305 305 305 303 302 301 300 299 298 297 296 295 294 293 292 291 290 289 289 288 288 288 287 286 285 284 282 281 280 278 276 274
296 297 298 298 299 300 300 301 301 301 302 302 303 303 304 305 306 307 308 308 309 309 309 310 310 310 310 310 310 310 311 311 311 310 310 310 310 311 311 311 310 310 310 310 309 309 308 308 307 306 305 304 304 304 305 304 302 301 301 300 299 298 297 296 296 295 294 293 292 292 291 290 290 290 289 289 288 287 286 285 284 282 280 278 276
296 297 298 298 299 299 300 300 300 301 301 302 303 304 305 305 306 307 307 308 308 308 308 309 309 309 309 310 309 310 310 310 310 309 309 309 310 310 310 310 310 309 309 309 308 308 308 307 306 305 304 303 303 304 304 303 301 301 300 299 298 298 297 297 296 296 295 294 294 293 292 291 291 290 289 289 288 287 286 285 284 283 282 280 278
296 297 297 298 298 299 299 299 300 301 301 302 303 304 305 305 306 306 307 307 307 307 308 308 308 309 309 309 309 309 309 309 309 309 309 309 310 310 309 309 309 308 308 308 308 307 307 307 305 304 303 303 304 304 304 302 301 301 300 299 298 298 297 297 296 296 295 295 294 293 292 291 291 290 289 289 288 287 286 286 285 284 282 281 280
296 296 297 297 298 298 299 299 300 301 302 302 303 304 304 305 305 306 306 306 306 307 307 307 308 308 308 308 308 308 308 308 308 308 308 309 309 309 308 308 308 308 308 307 307 306 306 305 304 303 302 302 303 304 303 301 301 301 300 299 298 298 297 297 296 295 294 294 293 292 291 291 291 290 290 289 288 287 286 286 285 284 283 282 280
296 296 296 297 297 298 299 299 300 301 302 302 303 303 304 304 305 305 305 306 306 306 306 307 307 307 307 307 307 307 307 308 307 307 308 308 308 308 307 307 307 307 306 306 306 305 305 304 302 302 302 302 303 302 301 300 300 299 299 298 298 297 297 296 295 294 294 293 292 292 291 291 291 291 290 289 289 288 287 286 285 285 284 282 281
295 295 296 297 297 298 299 300 300 301 301 302 302 303 303 304 304 304 305 305 305 306 306 306 306 306 306 306 306 306 307 307 307 307 307 307 307 306 306 306 305 305 305 304 304 304 303 302 301 301 301 301 302 301 300 300 299 298 298 297 297 297 296 295 294 293 293 293 292 292 291 291 291 290 290 289 289 288 288 287 286 285 284 283 282
295 295 296 297 298 298 299 299 300 300 301 301 302 302 303 303 304 304 304 305 305 305 305 305 305 305 305 305 305 305 306 306 306 306 306 305 305 305 305 304 304 304 304 303 303 303 302 301 300 300 300 300 301 300 299 299 298 298 298 297 297 296 296 295 294 293 293 293 292 292 291 291 291 290 289 289 289 288 287 287 286 285 284 283 282
295 296 296 297 297 298 298 299 299 300 300 301 301 302 302 303 303 303 304 304 304 304 304 304 304 305 305 305 305 305 305 305 305 305 305 304 304 304 303 303 303 303 302 302 301 301 300 300 299 299 299 299 300 300 299 299 298 298 298 298 297 297 296 295 294 294 293 293 292 292 291 291 290 290 289 288 288 288 287 286 285 284 284 283 282
295 296 296 296 297 297 298 298 299 300 300 301 301 301 302 302 302 303 303 303 303 303 304 304 304 304 304 304 304 304 304 304 304 304 304 303 303 303 302 302 302 301 300 300 300 300 299 299 298 298 298 299 299 299 299 298 298 298 298 297 297 296 295 295 294 294 293 292 292 291 291 290 290 289 289 288 288 287 286 285 284 283 283 282 282
295 295 295 296 297 297 298 298 299 299 300 300 301 301 301 302 302 302 302 303 303 303 303 303 303 303 304 304 304 304 304 304 304 303 303 303 302 302 301 301 301 300 299 299 299 299 298 297 297 297 297 297 297 297 297 297 297 297 296 296 296 295 294 294 294 293 293 292 292 291 291 290 290 289 288 288 287 286 286 285 284 283 282 282 282
294 295 296 296 297 297 298 298 298 299 299 300 300 301 301 301 301 301 302 302 303 303 303 303 303 303 303 303 303 303 303 303 303 302 302 302 302 301 301 301 301 300 299 299 299 298 297 297 296 296 296 296 296 296 296 296 296 295 295 295 294 294 293 293 293 293 293 292 292 291 290 290 289 289 288 287 287 286 285 284 283 283 283 282 282
294 295 296 296 296 297 297 297 298 299 299 299 300 300 300 300 301 301 301 302 302 302 302 302 302 302 303 302 302 302 302 302 302 301 301 301 300 300 300 300 300 299 299 299 298 298 297 297 296 296 296 296 296 295 295 294 294 294 294 294 293 293 292 292 292 292 292 292 291 290 290 289 289 288 287 287 286 285 284 283 283 282 282 282 282
294 294 295 295 296 296 297 297 298 298 299 299 299 299 300 300 300 301 301 301 301 301 301 302 302 302 302 301 301 301 301 301 301 300 300 300 299 299 299 299 299 299 299 298 298 297 297 296 296 295 295 295 295 294 294 293 293 293 293 292 292 291 291 291 291 291 291 291 290 290 289 289 289 288 287 286 286 285 284 283 282 282 282 282 282
293 294 294 295 295 296 296 297 297 298 298 298 298 299 299 299 300 300 300 300 300 300 301 301 301 301 300 300 300 300 300 300 300 300 299 299 299 299 299 299 299 298 298 297 297 296 296 295 295 295 295 295 294 294 293 292 292 292 292 292 291 291 291 291 291 291 291 290 289 288 288 288 288 287 286 286 285 284 283 283 283 282 282 281 281
293 294 294 294 295 295 296 296 296 297 297 297 298 298 298 299 299 299 299 299 300 300 300 299 299 299 299 299 299 299 299 299 299 299 299 299 299 299 299 299 298 298 297 296 296 295 295 294 294 294 294 293 293 292 291 291 291 291 291 291 291 290 290 290 290 290 289 288 287 287 287 288 287 286 286 285 284 283 283 282 282 282 282 282 281
293 293 294 294 294 295 295 295 296 296 296 297 297 298 298 298 298 299 299 299 299 299 299 298 298 298 298 298 298 298 298 299 299 299 299 299 299 298 298 298 297 297 296 295 295 294 294 293 293 293 292 292 291 290 290 290 290 289 289 289 289 288 288 288 288 288 288 287 286 286 287 287 286 285 285 284 284 283 282 282 282 282 282 281 281
292 293 293 294 294 294 295 295 295 296 296 297 297 297 298 298 298 298 298 298 298 298 298 298 298 298 297 298 298 298 298 299 299 298 298 298 298 297 297 297 296 296 295 294 294 293 293 293 292 292 291 290 290 289 289 289 289 289 289 288 287 287 287 287 287 287 286 285 285 286 286 286 285 285 284 283 282 282 282 281 281 281 281 281 281
292 293 293 293 294 294 295 295 295 296 296 296 297 297 297 297 297 297 297 297 297 297 297 297 297 297 297 298 298 298 298 298 298 298 298 297 297 297 296 296 295 295 294 294 293 292 292 292 292 291 290 290 289 289 289 289 288 288 288 287 286 286 286 286 286 285 285 284 285 286 285 285 284 284 283 282 282 281 281 281 281 281 281 280 280
292 293 293 293 294 294 295 295 296 296 296 296 296 296 296 296 296 296 297 297 297 297 297 297 297 297 298 298 298 298 298 298 297 297 297 296 296 296 296 295 295 294 293 293 292 292 292 291 291 290 289 289 289 289 289 288 288 288 287 286 286 286 286 285 285 285 284 284 285 285 285 284 284 283 282 281 281 280 280 281 281 281 281 280 280
292 293 293 294 294 295 295 295 295 295 295 295 295 295 295 296 296 296 297 297 297 297 297 297 297 297 298 298 298 298 297 297 296 296 295 295 295 295 294 294 294 293 293 293 292 292 292 291 290 290 289 289 289 289 289 289 288 288 287 287 286 286 286 286 285 285 285 285 285 285 284 284 283 283 281 281 280 280 280 280 280 280 280 280 280
292 293 293 294 294 294 294 295 295 295 295 295 295 295 296 296 296 296 297 297 297 297 297 297 297 297 297 297 297 296 296 295 295 295 294 294 293 293 293 292 292 293 293 293 292 292 292 291 290 290 289 289 289 289 289 289 289 288 288 287 286 286 286 286 285 285 285 285 285 284 284 284 283 282 281 280 280 280 280 280 280 280 279 279 279
292 293 293 293 294 294 294 294 294 295 295 295 296 296 296 296 296 296 296 296 296 296 296 296 296 296 296 296 296 295 295 295 294 294 294 293 293 293 292 292 291 292 292 292 292 292 292 291 291 290 290 290 290 289 289 289 289 289 288 287 287 287 286 286 286 286 285 285 284 284 284 283 282 281 280 280 280 279 279 279 279 279 279 279 279
293 293 293 293 293 294 294 294 295 295 295 295 296 296 296 296 296 296 296 296 296 296 296 296 295 295 295 295 295 294 294 294 294 294 293 293 293 292 292 292 292 291 291 292 292 292 292 291 291 290 290 290 290 290 290 290 289 289 288 288 288 287 286 286 286 285 285 284 284 284 283 282 281 280 279 279 279 279 279 279 279 279 279 278 278
293 293 293 294 294 294 294 295 295 295 295 295 295 295 295 295 295 295 295 295 295 295 294 294 294 294 294 294 294 294 293 293 293 293 294 293 293 293 293 293 292 292 292 292 292 291 291 291 290 290 290 290 290 290 289 289 289 288 288 288 287 286 286 286 286 285 285 284 284 283 282 280 280 279 279 278 278 278 279 279 279 278 278 278 278
294 294 294 294 294 294 295 295 294 294 294 294 294 294 294 294 293 293 293 293 293 293 293 294 294 294 294 293 293 293 293 293 294 294 294 293 293 293 293 293 293 292 292 292 291 291 290 290 290 290 290 290 289 289 289 289 288 288 287 287 286 286 286 286 285 285 284 284 283 282 280 279 278 278 278 278 278 278 278 278 278 278 278 277 277
294 294 294 295 294 294 294 294 294 293 293 293 293 293 293 293 293 293 293 293 293 293 293 293 294 293 293 294 294 293 293 294 294 294 294 293 293 293 293 293 292 292 291 291 291 291 290 290 290 290 290 290 290 289 289 289 288 288 287 286 286 286 286 285 284 284 283 282 281 280 279 278 278 277 277 277 277 277 277 277 277 277 277 276 276
294 294 294 294 294 294 294 294 293 293 293 293 293 293 293 292 292 292 293 293 293 293 293 293 293 293 294 294 294 294 294 294 294 294 293 293 293 293 293 292 292 292 292 291 291 291 291 291 291 291 291 290 290 290 289 289 288 287 287 286 286 285 285 284 283 283 282 281 280 279 278 278 277 277 276 276 276 276 276 276 275 275 275 275 275
294 293 294 294 294 294 294 293 293 293 293 293 293 293 292 292 292 292 293 293 293 293 293 293 293 294 294 294 294 294 294 294 294 294 293 293 293 293 293 293 293 293 292 292 292 292 292 292 292 292 291 291 290 289 289 288 288 287 286 285 285 284 283 283 282 281 280 280 279 278 277 277 277 276 275 275 275 275 275 275 274 274 273 273 274
Height
10631 10629 10626 10624 10621 10618 10615 10612 10608 10605 10602 10599 10596 10593 10589 10585 10581 10577 10573 10569 10564 10559 10555 10550 10545 10540 10534 10529 10523 10517 10511 10504 10497 10491 10484 10478 10472 10464 10456 10447 10439 10432 10424 10417 10409 10401 10392 10382 10373 10364 10355 10346 10338 10330 10323 10314 10307 10299 10290 10285 10278 10271 10269 10266 10265 10269 10264 10255 10253 10249 10240 10237 10233 10226 10225 10224 10218 10215 10215 10215 10218 10221 10222 10225 10226
10621 10619 10616 10613 10611 10608 10605 10601 10598 10595 10592 10589 10586 10582 10579 10575 10570 10566 10562 10558 10553 10549 10544 10538 10533 10528 10523 10517 10511 10505 10498 10491 10484 10477 10471 10464 10457 10449 10441 10432 10424 10416 10409 10401 10394 10386 10377 10366 10357 10348 10339 10330 10322 10315 10307 10299 10290 10283 10274 10268 10262 10254 10250 10248 10246 10248 10248 10241 10234 10231 10226 10222 10220 10214 10210 10210 10207 10203 10202 10200 10201 10204 10206 10208 10210
10611 10608 10606 10603 10600 10597 10594 10591 10587 10584 10581 10578 10575 10572 10568 10563 10559 10555 10551 10547 10543 10538 10532 10527 10521 10516 10511 10505 10499 10492 10485 10477 10470 10463 10457 10450 10443 10434 10425 10416 10408 10400 10392 10385 10378 10370 10361 10351 10342 10334 10325 10315 10307 10300 10292 10284 10276 10268 10260 10252 10246 10239 10232 10229 10228 10228 10230 10227 10219 10214 10210 10205 10204 10201 10198 10196 10194 10192 10191 10188 10186 10187 10190 10191 10193
10601 10598 10595 10593 10590 10586 10583 10580 10576 10573 10571 10568 10565 10561 10556 10552 10549 10545 10541 10536 10532 10526 10520 10515 10510 10504 10499 10493 10486 10479 10472 10464 10457 10450 10443 10436 10428 10419 10410 10401 10392 10384 10376 10369 10363 10354 10345 10335 10326 10318 10309 10300 10292 10285 10277 10270 10262 10253 10246 10238 10231 10225 10217 10212 10211 10210 10212 10212 10206 10200 10195 10190 10187 10185 10184 10183 10181 10179 10179 10177 10174 10172 10173 10175 10178
10590 10588 10585 10582 10579 10576 10573 10569 10566 10563 10560 10557 10554 10549 10545 10541 10538 10534 10530 10525 10520 10514 10508 10502 10497 10492 10486 10480 10473 10466 10458 10451 10443 10436 10429 10421 10413 10405 10395 10385 10376 10368 10360 10353 10346 10338 10328 10319 10310 10301 10293 10285 10276 10269 10262 10254 10247 10239 10231 10224 10217 10210 10204 10198 10195 10194 10193 10194 10192 10187 10180 10176 10173 10170 10170 10170 10169 10165 10164 10164 10162 10161 10160 10161 10162
10580 10577 10575 10572 10569 10566 10562 10558 10556 10553 10550 10547 10542 10538 10534 10530 10527 10523 10518 10513 10507 10501 10495 10490 10484 10479 10473 10466 10459 10452 10445 10438 10430 10422 10414 10406 10398 10389 10379 10369 10360 10351 10344 10337 10329 10321 10311 10302 10293 10284 10276 10268 10260 10253 10245 10238 10231 10224 10216 10209 10203 10196 10190 10184 10180 10178 10177 10176 10175 10173 10168 10162 10158 10156 10155 10156 10155 10154 10152 10151 10149 10148 10149 10151 10148
10569 10567 10564 10562 10558 10554 10551 10548 10546 10543 10539 10536 10531 10527 10523 10519 10516 10511 10506 10500 10494 10488 10482 10476 10471 10465 10458 10451 10445 10438 10431 10425 10417 10408 10400 10392 10383 10374 10363 10353 10344 10335 10328 10320 10312 10304 10294 10285 10276 10267 10259 10251 10243 10236 10229 10222 10215 10208 10201 10194 10188 10182 10176 10171 10167 10163 10162 10160 10158 10156 10154 10149 10145 10144 10142 10141 10140 10140 10142 10142 10138 10133 10134 10138 10137
10560 10557 10555 10551 10547 10543 10541 10538 10535 10532 10528 10524 10520 10516 10511 10507 10503 10498 10493 10487 10480 10475 10469 10463 10457 10450 10443 10436 10430 10424 10418 10411 10403 10394 10386 10378 10368 10359 10348 10338 10328 10319 10312 10304 10295 10286 10278 10268 10259 10250 10242 10234 10227 10220 10213 10207 10200 10192 10186 10179 10174 10169 10163 10158 10154 10150 10147 10146 10143 10140 10138 10135 10132 10131 10130 10128 10126 10126 10128 10131 10131 10125 10122 10123 10122
10550 10547 10544 10540 10535 10533 10530 10528 10525 10521 10517 10513 10508 10504 10499 10495 10490 10485 10479 10473 10467 10462 10456 10449 10442 10435 10428 10421 10415 10409 10403 10396 10388 10379 10371 10363 10353 10343 10333 10322 10313 10304 10296 10288 10279 10269 10260 10251 10242 10234 10226 10217 10210 10204 10197 10191 10185 10178 10171 10165 10159 10155 10150 10145 10141 10138 10135 10132 10129 10126 10124 10120 10117 10116 10117 10115 10115 10115 10115 10116 10118 10118 10117 10114 10107
10539 10536 10533 10528 10525 10522 10519 10516 10513 10510 10505 10500 10496 10491 10486 10482 10476 10471 10465 10459 10453 10448 10441 10434 10427 10419 10413 10406 10400 10394 10387 10379 10372 10364 10356 10347 10338 10328 10317 10307 10297 10288 10280 10271 10262 10252 10243 10235 10226 10217 10209 10201 10194 10188 10182 10176 10170 10163 10157 10151 10146 10142 10137 10132 10128 10125 10123 10119 10115 10112 10111 10108 10104 10102 10103 10103 10102 10104 10104 10103 10105 10106 10108 10107 10099
10528 10524 10522 10517 10514 10512 10508 10505 10502 10498 10493 10488 10483 10478 10473 10468 10463 10457 10451 10445 10439 10433 10426 10419 10412 10404 10397 10391 10384 10377 10370 10363 10356 10348 10340 10331 10322 10312 10301 10291 10281 10273 10265 10256 10245 10236 10227 10219 10211 10201 10193 10186 10179 10173 10167 10160 10154 10148 10142 10137 10133 10128 10124 10120 10116 10113 10110 10107 10103 10099 10098 10097 10092 10088 10088 10091 10091 10091 10092 10092 10093 10095 10095 10095 10092
10516 10513 10510 10506 10504 10500 10496 10493 10490 10486 10481 10475 10470 10464 10459 10454 10449 10443 10437 10431 10425 10419 10411 10404 10397 10389 10382 10375 10368 10360 10352 10346 10339 10331 10323 10315 10306 10297 10285 10274 10265 10257 10248 10240 10230 10221 10212 10203 10194 10186 10179 10172 10165 10159 10152 10145 10140 10133 10128 10123 10119 10114 10110 10106 10104 10102 10099 10095 10092 10088 10085 10084 10082 10077 10074 10078 10080 10080 10080 10081 10081 10083 10083 10082 10082
10505 10502 10498 10495 10492 10488 10484 10481 10477 10473 10468 10462 10456 10450 10444 10439 10435 10429 10423 10417 10410 10403 10396 10389 10382 10374 10367 10359 10351 10343 10335 10329 10322 10314 10306 10298 10290 10282 10270 10258 10249 10240 10231 10223 10214 10205 10197 10188 10179 10170 10164 10158 10151 10145 10139 10132 10126 10120 10114 10110 10105 10100 10096 10092 10091 10090 10087 10084 10083 10078 10073 10071 10071 10068 10063 10065 10068 10069 10070 10069 10068 10069 10070 10070 10070
10493 10489 10486 10483 10480 10476 10471 10468 10464 10459 10453 10447 10442 10436 10430 10424 10420 10414 10408 10402 10395 10388 10380 10373 10366 10359 10351 10342 10334 10326 10317 10311 10305 10298 10289 10282 10274 10265 10255 10244 10234 10224 10215 10207 10199 10190 10182 10173 10164 10156 10149 10143 10138 10132 10126 10120 10114 10108 10102 10097 10092 10086 10082 10078 10077 10075 10073 10072 10072 10069 10064 10060 10059 10059 10055 10054 10057 10059 10059 10058 10056 10056 10057 10057 10057
10481 10476 10474 10471 10467 10463 10459 10454 10449 10444 10439 10433 10428 10422 10415 10410 10404 10398 10392 10386 10379 10371 10364 10357 10350 10343 10335 10326 10317 10309 10300 10293 10288 10281 10272 10265 10257 10248 10239 10229 10219 10209 10199 10192 10184 10175 10166 10158 10150 10143 10136 10129 10124 10119 10114 10108 10102 10096 10091 10086 10080 10074 10069 10066 10063 10061 10059 10059 10058 10057 10054 10050 10049 10049 10047 10046 10048 10049 10049 10046 10044 10044 10044 10044 10044
10467 10464 10461 10458 10454 10450 10445 10440 10434 10429 10424 10419 10413 10407 10400 10394 10388 10382 10376 10369 10362 10355 10348 10341 10334 10326 10317 10309 10300 10292 10283 10276 10270 10263 10255 10247 10239 10231 10222 10213 10203 10193 10185 10177 10169 10160 10151 10143 10137 10130 10123 10116 10110 10105 10101 10096 10090 10084 10079 10074 10069 10063 10058 10054 10051 10048 10046 10045 10044 10043 10042 10041 10040 10039 10037 10037 10038 10040 10039 10035 10033 10034 10034 10032 10031
10453 10451 10449 10445 10440 10435 10430 10425 10420 10415 10410 10404 10398 10391 10385 10378 10372 10365 10359 10353 10346 10339 10332 10325 10318 10309 10300 10292 10284 10275 10266 10258 10251 10245 10238 10230 10222 10214 10205 10197 10188 10178 10170 10163 10154 10145 10136 10129 10123 10117 10110 10103 10097 10092 10087 10084 10079 10073 10068 10063 10058 10053 10048 10044 10040 10036 10034 10033 10031 10029 10029 10030 10030 10029 10027 10026 10028 10030 10030 10025 10022 10023 10023 10022 10020
10441 10439 10435 10431 10425 10421 10415 10410 10405 10400 10395 10389 10382 10376 10369 10362 10355 10349 10343 10337 10330 10323 10317 10309 10301 10292 10284 10276 10268 10259 10249 10240 10234 10228 10221 10213 10206 10198 10189 10182 10173 10164 10156 10148 10139 10130 10122 10115 10109 10103 10097 10090 10084 10078 10074 10071 10067 10062 10056 10052 10048 10043 10038 10035 10030 10026 10023 10021 10018 10016 10016 10018 10019 10018 10016 10016 10017 10018 10019 10017 10014 10012 10011 10011 10009
10430 10426 10421 10416 10411 10406 10401 10396 10391 10385 10379 10373 10367 10360 10354 10346 10340 10334 10328 10321 10315 10308 10300 10293 10285 10276 10268 10260 10252 10243 10233 10224 10217 10212 10205 10197 10189 10182 10174 10166 10158 10149 10141 10133 10124 10116 10108 10101 10094 10089 10084 10077 10070 10065 10062 10059 10055 10050 10045 10041 10037 10032 10028 10025 10021 10017 10014 10010 10007 10004 10004 10004 10005 10005 10005 10005 10005 10006 10007 10007 10005 10003 10001 10000 9999
10418 10412 10407 10402 10397 10392 10387 10382 10376 10370 10364 10359 10352 10345 10339 10332 10326 10320 10313 10306 10300 10292 10285 10277 10269 10261 10253 10245 10237 10227 10218 10209 10201 10196 10189 10180 10172 10166 10160 10151 10143 10135 10127 10118 10110 10103 10095 10087 10081 10075 10070 10064 10057 10053 10050 10047 10043 10039 10034 10031 10026 10022 10018 10015 10011 10008 10005 10002 9998 9994 9993 9993 9992 9992 9993 9992 9993 9993 9994 9994 9994 9993 9992 9990 9989
10403 10397 10393 10388 10382 10378 10372 10367 10362 10356 10350 10344 10337 10331 10324 10318 10311 10304 10297 10291 10284 10277 10269 10261 10254 10247 10239 10231 10222 10212 10203 10195 10187 10180 10173 10163 10155 10150 10145 10137 10128 10120 10113 10104 10096 10089 10082 10075 10068 10062 10056 10050 10045 10042 10039 10035 10032 10028 10024 10020 10016 10012 10009 10006 10002 9999 9996 9993 9989 9986 9984 9983 9981 9981 9981 9980 9980 9980 9979 9980 9981 9981 9980 9980 9979
10387 10382 10378 10373 10368 10363 10358 10352 10347 10341 10335 10329 10323 10317 10310 10303 10297 10289 10282 10275 10268 10261 10254 10246 10239 10233 10225 10217 10208 10198 10188 10180 10172 10164 10156 10146 10139 10134 10129 10122 10114 10105 10098 10091 10084 10076 10069 10063 10057 10050 10043 10038 10033 10031 10028 10024 10020 10016 10012 10009 10005 10001 9999 9996 9993 9990 9986 9984 9981 9977 9975 9974 9971 9970 9970 9970 9969 9967 9966 9966 9968 9968 9968 9968 9968
10371 10367 10362 10357 10353 10348 10343 10338 10332 10326 10321 10315 10309 10303 10295 10288 10282 10275 10267 10260 10253 10246 10239 10231 10225 10219 10211 10202 10193 10183 10174 10166 10158 10149 10139 10131 10124 10118 10113 10107 10098 10090 10084 10077 10070 10063 10056 10052 10045 10038 10032 10026 10022 10020 10018 10013 10009 10005 10002 9998 9994 9990 9988 9985 9983 9980 9977 9974 9972 9969 9966 9964 9962 9960 9959 9958 9958 9956 9954 9953 9954 9955 9955 9955 9957
10355 10351 10346 10342 10338 10333 10328 10323 10317 10312 10306 10300 10294 10288 10280 10273 10267 10260 10252 10245 10237 10230 10223 10216 10210 10204 10196 10188 10179 10169 10161 10153 10145 10135 10124 10116 10110 10104 10098 10090 10083 10076 10070 10064 10056 10049 10044 10039 10033 10026 10020 10015 10011 10010 10007 10001 9997 9994 9991 9987 9983 9980 9977 9974 9971 9969 9967 9964 9961 9958 9956 9953 9952 9950 9948 9947 9947 9944 9941 9941 9941 9942 9942 9942 9944
10340 10335 10331 10327 10322 10318 10313 10308 10302 10296 10290 10284 10278 10272 10265 10259 10252 10244 10237 10230 10222 10215 10208 10202 10195 10188 10181 10173 10164 10155 10148 10140 10131 10121 10110 10102 10097 10091 10083 10075 10068 10062 10057 10051 10043 10036 10031 10026 10020 10013 10007 10003 10001 9999 9995 9989 9985 9983 9980 9977 9973 9970 9966 9963 9960 9958 9956 9953 9951 9948 9945 9942 9941 9940 9938 9937 9937 9934 9930 9929 9929 9930 9930 9928 9930
10324 10320 10316 10311 10307 10302 10297 10292 10286 10280 10274 10268 10262 10256 10249 10243 10236 10229 10222 10214 10207 10200 10193 10186 10180 10172 10165 10157 10149 10141 10134 10126 10117 10106 10096 10090 10084 10077 10069 10062 10054 10048 10042 10037 10030 10023 10018 10013 10007 10000 9995 9991 9989 9988 9983 9977 9974 9971 9969 9965 9962 9960 9957 9953 9950 9948 9946 9944 9941 9938 9935 9932 9930 9929 9928 9927 9927 9925 9921 9918 9917 9918 9919 9917 9916
10310 10305 10300 10296 10291 10286 10280 10275 10269 10263 10257 10251 10245 10239 10233 10227 10220 10214 10207 10199 10191 10185 10177 10170 10163 10155 10148 10141 10133 10125 10119 10112 10103 10092 10083 10077 10070 10063 10055 10048 10041 10034 10029 10023 10017 10011 10007 10001 9994 9988 9983 9980 9979 9976 9971 9966 9963 9960 9957 9954 9951 9949 9947 9944 9941 9938 9936 9934 9932 9929 9926 9923 9921 9919 9917 9916 9916 9916 9912 9909 9906 9906 9907 9906 9905
10294 10289 10284 10279 10274 10269 10263 10257 10251 10246 10239 10233 10227 10221 10216 10210 10204 10198 10191 10183 10175 10168 10160 10153 10146 10138 10131 10124 10117 10110 10104 10097 10089 10080 10071 10064 10057 10050 10042 10035 10028 10022 10016 10010 10005 10000 9995 9988 9981 9975 9971 9969 9968 9965 9960 9956 9953 9949 9946 9944 9941 9939 9937 9934 9931 9929 9926 9924 9922 9919 9916 9913 9911 9909 9906 9905 9905 9905 9903 9900 9897 9896 9895 9895 9894
10278 10273 10268 10263 10257 10251 10246 10240 10234 10228 10222 10216 10210 10205 10199 10193 10187 10181 10173 10166 10158 10151 10143 10136 10129 10121 10115 10108 10101 10095 10090 10083 10075 10068 10061 10053 10045 10038 10030 10023 10016 10010 10004 9999 9994 9990 9983 9975 9969 9963 9959 9958 9956 9952 9948 9945 9942 9939 9936 9934 9932 9929 9927 9925 9922 9919 9917 9914 9912 9909 9906 9903 9901 9900 9897 9894 9894 9894 9893 9890 9887 9886 9885 9884 9884
10259 10255 10250 10245 10240 10235 10229 10223 10217 10212 10206 10200 10194 10188 10182 10176 10170 10163 10156 10148 10141 10134 10127 10120 10112 10105 10099 10093 10086 10080 10075 10069 10062 10055 10048 10041 10034 10026 10019 10011 10004 9998 9992 9986 9983 9979 9972 9964 9958 9952 9948 9947 9945 9941 9937 9933 9930 9927 9925 9923 9921 9919 9917 9914 9912 9909 9907 9905 9902 9899 9897 9894 9891 9890 9888 9886 9884 9884 9883 9881 9878 9875 9874 9873 9873
10241 10237 10232 10227 10223 10218 10212 10206 10200 10195 10189 10183 10177 10171 10165 10158 10152 10146 10139 10131 10124 10117 10110 10103 10096 10090 10083 10077 10070 10064 10058 10052 10046 10040 10034 10027 10021 10014 10006 9999 9993 9987 9980 9975 9972 9968 9961 9953 9947 9941 9937 9935 9933 9929 9925 9922 9919 9915 9913 9910 9909 9907 9905 9903 9901 9899 9897 9894 9892 9889 9887 9884 9881 9879 9878 9877 9875 9874 9873 9871 9869 9866 9864 9863 9862
10224 10220 10215 10210 10205 10200 10195 10190 10184 10177 10171 10165 10159 10154 10147 10141 10134 10127 10120 10114 10107 10100 10093 10085 10078 10072 10067 10061 10054 10047 10040 10034 10029 10024 10018 10012 10005 9999 9993 9988 9982 9976 9969 9963 9961 9957 9950 9943 9936 9930 9926 9924 9922 9917 9914 9910 9907 9905 9902 9899 9897 9895 9894 9892 9890 9888 9886 9884 9881 9879 9877 9875 9872 9869 9868 9867 9866 9864 9862 9861 9859 9857 9855 9853 9853
10206 10202 10198 10193 10187 10182 10177 10172 10166 10160 10154 10147 10141 10136 10129 10123 10116 10109 10101 10095 10089 10083 10076 10068 10061 10054 10048 10043 10037 10031 10024 10017 10011 10006 10001 9995 9990 9984 9979 9975 9970 9963 9955 9951 9949 9944 9938 9933 9927 9921 9917 9915 9912 9908 9904 9900 9897 9894 9892 9889 9886 9884 9882 9881 9880 9878 9876 9874 9871 9869 9867 9865 9863 9860 9858 9857 9857 9854 9852 9850 9848 9847 9845 9844 9843
10187 10183 10178 10173 10168 10162 10157 10152 10146 10141 10135 10129 10123 10117 10110 10104 10098 10091 10084 10077 10070 10064 10057 10051 10044 10038 10031 10025 10019 10014 10009 10003 9996 9990 9984 9978 9973 9968 9964 9961 9956 9949 9942 9938 9935 9931 9926 9922 9917 9911 9907 9905 9902 9899 9895 9891 9888 9885 9882 9880 9877 9874 9872 9871 9870 9868 9865 9863 9861 9859 9857 9855 9854 9851 9848 9847 9847 9845 9843 9840 9838 9837 9835 9834 9834
10168 10163 10158 10154 10149 10143 10138 10132 10127 10121 10116 10110 10104 10098 10092 10086 10080 10074 10067 10061 10054 10047 10040 10033 10027 10021 10015 10008 10002 9997 9992 9988 9982 9976 9970 9964 9958 9953 9950 9947 9943 9936 9930 9925 9920 9916 9912 9909 9904 9900 9896 9894 9892 9888 9885 9881 9878 9876 9873 9871 9868 9865 9862 9861 9860 9858 9856 9853 9850 9848 9846 9845 9844 9842 9839 9837 9837 9835 9833 9831 9829 9828 9826 9825 9824
10151 10146 10141 10136 10130 10125 10119 10114 10108 10103 10097 10092 10086 10080 10074 10068 10062 10056 10051 10045 10038 10032 10025 10018 10011 10005 9998 9993 9987 9981 9976 9971 9966 9961 9956 9950 9945 9940 9937 9934 9930 9925 9919 9913 9907 9902 9899 9896 9893 9889 9885 9883 9880 9877 9874 9871 9869 9866 9864 9861 9858 9855 9853 9851 9850 9848 9847 9844 9841 9838 9836 9835 9835 9833 9830 9828 9827 9825 9823 9821 9820 9819 9818 9817 9815
10133 10129 10124 10118 10113 10108 10102 10097 10091 10086 10080 10074 10068 10063 10057 10051 10045 10040 10034 10028 10022 10016 10010 10003 9996 9990 9983 9978 9972 9967 9962 9957 9951 9946 9940 9935 9930 9926 9923 9920 9917 9912 9908 9902 9896 9892 9888 9884 9881 9878 9874 9871 9868 9865 9863 9861 9859 9856 9854 9851 9848 9845 9843 9841 9840 9839 9837 9834 9831 9828 9827 9826 9825 9823 9820 9818 9817 9815 9813 9812 9810 9809 9809 9809 9807
10115 10111 10106 10101 10096 10091 10085 10080 10075 10069 10063 10057 10051 10046 10040 10034 10029 10023 10017 10011 10006 10000 9994 9988 9982 9975 9969 9963 9958 9953 9949 9943 9938 9932 9926 9921 9916 9912 9908 9906 9903 9899 9895 9890 9885 9881 9877 9873 9870 9867 9864 9861 9858 9854 9852 9851 9849 9846 9844 9841 9838 9835 9832 9831 9830 9829 9827 9824 9821 9819 9818 9817 9815 9813 9811 9809 9807 9805 9804 9803 9802 9800 9799 9799 9799
10097 10093 10088 10083 10079 10074 10068 10063 10058 10052 10046 10041 10035 10029 10023 10017 10011 10006 10000 9995 9989 9983 9978 9972 9966 9961 9955 9949 9943 9938 9934 9929 9924 9918 9912 9907 9902 9898 9895 9892 9889 9886 9883 9879 9874 9870 9866 9862 9859 9856 9854 9851 9847 9844 9842 9840 9838 9836 9834 9831 9828 9825 9823 9821 9820 9819 9817 9813 9810 9809 9809 9808 9806 9803 9802 9800 9798 9796 9795 9794 9793 9791 9790 9790 9790
10078 10074 10070 10065 10061 10056 10051 10046 10040 10035 10029 10023 10017 10012 10006 10000 9994 9988 9983 9978 9972 9967 9961 9955 9950 9945 9939 9934 9928 9924 9919 9915 9910 9904 9899 9894 9889 9885 9881 9879 9876 9873 9870 9867 9863 9859 9855 9852 9848 9845 9842 9839 9837 9834 9832 9830 9828 9826 9824 9821 9818 9815 9813 9812 9811 9809 9806 9803 9801 9800 9800 9798 9796 9794 9793 9791 9788 9787 9786 9785 9784 9783 9782 9781 9780
10060 10055 10052 10047 10042 10038 10033 10028 10022 10017 10012 10006 10000 9994 9989 9983 9978 9972 9966 9961 9956 9950 9944 9939 9934 9929 9924 9918 9914 9909 9905 9901 9896 9891 9887 9882 9877 9872 9868 9865 9862 9860 9857 9854 9851 9848 9845 9842 9838 9834 9831 9828 9826 9824 9822 9819 9817 9816 9813 9810 9807 9804 9803 9802 9801 9799 9795 9793 9792 9792 9791 9788 9786 9785 9783 9781 9779 9778 9777 9776 9774 9774 9774 9773 9771
10041 10037 10033 10029 10024 10019 10014 10009 10004 9999 9994 9988 9983 9977 9971 9966 9961 9955 9950 9945 9939 9934 9928 9923 9918 9913 9908 9904 9899 9895 9890 9887 9883 9879 9875 9870 9865 9860 9856 9851 9848 9846 9844 9842 9839 9836 9834 9832 9828 9823 9820 9817 9815 9814 9811 9809 9807 9805 9802 9799 9797 9794 9793 9792 9791 9788 9785 9783 9783 9783 9781 9779 9778 9776 9774 9772 9770 9769 9768 9767 9766 9765 9765 9764 9763
10024 10019 10015 10010 10006 10001 9996 9991 9986 9981 9976 9971 9966 9960 9955 9949 9944 9938 9933 9928 9923 9917 9912 9907 9902 9898 9893 9889 9885 9881 9877 9873 9869 9866 9863 9860 9855 9851 9846 9840 9835 9831 9830 9829 9827 9824 9822 9820 9816 9812 9809 9806 9805 9803 9801 9798 9796 9794 9791 9789 9786 9784 9782 9781 9780 9778 9775 9773 9773 9773 9771 9770 9769 9767 9764 9762 9761 9760 9760 9759 9757 9757 9756 9755 9755
10006 10002 9997 9993 9988 9983 9978 9973 9968 9962 9958 9953 9948 9943 9938 9932 9927 9922 9917 9912 9907 9902 9897 9892 9888 9884 9879 9876 9872 9868 9863 9860 9856 9853 9850 9848 9844 9841 9837 9832 9826 9820 9817 9815 9814 9813 9811 9808 9804 9801 9797 9795 9794 9792 9790 9787 9785 9783 9780 9778 9776 9774 9773 9771 9769 9768 9766 9764 9763 9763 9762 9761 9759 9757 9755 9754 9752 9752 9751 9750 9749 9749 9748 9747 9747
9989 9984 9980 9975 9971 9966 9961 9956 9951 9945 9940 9935 9930 9926 9921 9915 9911 9906 9901 9896 9892 9887 9883 9879 9875 9870 9866 9863 9858 9854 9850 9846 9843 9840 9837 9834 9832 9828 9825 9821 9817 9812 9807 9804 9802 9800 9798 9795 9792 9789 9786 9784 9783 9781 9779 9777 9775 9772 9769 9767 9765 9764 9763 9761 9759 9757 9756 9755 9754 9753 9753 9752 9750 9748 9746 9745 9744 9743 9742 9742 9741 9740 9740 9739 9739
9971 9967 9962 9957 9953 9948 9943 9939 9934 9929 9924 9919 9914 9909 9904 9899 9895 9890 9885 9881 9877 9873 9869 9865 9861 9857 9854 9850 9845 9841 9838 9834 9830 9827 9824 9821 9818 9815 9812 9809 9806 9802 9798 9794 9791 9789 9786 9784 9781 9778 9775 9773 9772 9770 9768 9766 9764 9761 9758 9756 9754 9753 9752 9751 9749 9748 9746 9745 9745 9745 9744 9743 9741 9739 9737 9736 9736 9735 9734 9733 9733 9732 9731 9731 9731
9953 9948 9944 9939 9935 9930 9926 9921 9917 9912 9908 9903 9898 9893 9889 9884 9880 9876 9871 9867 9863 9859 9855 9852 9848 9844 9841 9837 9833 9829 9825 9822 9818 9815 9812 9808 9805 9802 9799 9797 9793 9790 9787 9784 9781 9778 9775 9773 9770 9768 9765 9763 9761 9759 9757 9755 9753 9751 9749 9746 9743 9742 9742 9741 9740 9738 9737 9736 9736 9736 9735 9733 9732 9730 9729 9728 9727 9727 9726 9725 9725 9724 9723 9723 9722
9934 9929 9925 9921 9917 9913 9909 9905 9900 9896 9892 9887 9883 9878 9874 9870 9866 9862 9858 9854 9850 9846 9842 9839 9835 9831 9827 9824 9820 9817 9813 9810 9807 9804 9800 9796 9793 9790 9787 9785 9782 9778 9776 9773 9770 9768 9765 9762 9760 9757 9755 9753 9751 9749 9746 9745 9743 9741 9739 9736 9734 9733 9733 9732 9730 9729 9728 9728 9727 9726 9726 9725 9723 9722 9721 9720 9719 9719 9718 9718 9717 9716 9716 9715 9714
9915 9911 9907 9903 9899 9896 9892 9888 9884 9879 9875 9871 9867 9863 9859 9855 9851 9847 9844 9840 9836 9833 9829 9826 9822 9818 9815 9811 9808 9804 9801 9798 9795 9792 9789 9785 9782 9779 9776 9773 9770 9767 9765 9762 9759 9757 9754 9752 9750 9747 9745 9743 9740 9738 9736 9734 9732 9731 9728 9726 9725 9724 9723 9723 9721 9720 9719 9719 9718 9717 9716 9715 9715 9714 9713 9712 9711 9711 9711 9710 9710 9709 9708 9708 9707
9898 9894 9890 9886 9882 9879 9875 9871 9867 9863 9859 9855 9852 9848 9844 9840 9836 9833 9829 9826 9823 9819 9816 9813 9809 9806 9802 9799 9795 9792 9789 9786 9783 9780 9777 9774 9771 9768 9765 9762 9759 9756 9754 9751 9748 9746 9743 9741 9739 9737 9735 9733 9730 9727 9725 9723 9722 9721 9719 9717 9716 9715 9714 9713 9713 9712 9711 9710 9710 9709 9707 9707 9706 9705 9705 9704 9704 9704 9704 9703 9703 9702 9701 9701 9701
9881 9878 9874 9870 9866 9863 9859 9855 9851 9847 9843 9840 9836 9832 9829 9825 9822 9818 9815 9812 9809 9806 9803 9800 9797 9794 9790 9787 9783 9780 9777 9774 9772 9769 9766 9763 9759 9757 9754 9751 9748 9745 9742 9740 9738 9735 9733 9731 9729 9727 9725 9723 9720 9718 9716 9713 9712 9711 9710 9708 9707 9706 9705 9705 9704 9703 9702 9702 9702 9700 9699 9699 9698 9697 9697 9696 9696 9696 9696 9696 9696 9695 9694 9694 9694